User: anonymous   Login
Location: Unspecified
(0.0000°N, 0.0000°E)
Time: 15:11:46
(UTC+00:00)
Language:

Kosmos-2239 - Orbit

View from above orbital plane
View from above orbital plane
View from above satellite
View from above satellite

Ground track
Ground track

The orbit data is extracted from the following two-line orbital elements,

1 22590U 93020A   18051.92871424 +.00000034 +00000-0 +19345-4 0  9997
2 22590 082.9284 236.7859 0023977 131.5905 337.5032 13.75387434249110
Epoch (UTC): 20 February 2018 22:17:20
Eccentricity: 0.0023977
inclination: 82.9284°
perigee height: 962 km
apogee height: 998 km
right ascension of ascending node: 236.7859°
argument of perigee: 131.5905°
revolutions per day: 13.75387434
mean anomaly at epoch: 337.5032°
orbit number at epoch: 24911

The dashed part of the orbit path shows where the satellite is in the earth's shadow,  

DLR